www.pogodaiklimat.ru

Погода и климат >> Архив погоды >> Кот-д'Ивуар >> Ман


ПОГОДА в Мане

  • Прогноз погоды в Мане
  • Монитор погоды в Мане

АРХИВ ПОГОДЫ в Мане

Время (UTC), дата Ветер
(напр.,м/с)
 
Видим.   Явления Облачность Т
(С)
Тd
(С)
f
(%)
Тe
(С)
Тes
(С)
Комфортность P
(гПа)
Po
(гПа)
Тmin
(С)
Tmax
(С)
R
(мм)
R24
(мм)
S
(см)
15 18.06 ЮВ 1 10 км 8/8 450 м
[Cu med, cong]
+31.3 +22.3 59 +40 +44 очень
душно
1011.6 975.8
18 18.06 Ю 1 10 км 4/4 450 м
[Cu med, cong Ci sp]
+29.3 +23.5 71 +40 +40 очень
душно
1011.2 975.2 +32.5
21 18.06 штиль 0 10 км зарница 4/4 450 м
[Cb cap Ci sp]
+25.1 +24.2 95 +35 +35 очень
душно
1013.6 977.0
00 19.06 штиль 0 10 км 4/4 400 м
[Cu med, cong]
+23.6 +23.3 98 +32 +32 очень
душно
1014.1 977.3
03 19.06 ЮЗ 1 8000 м 6/6 400 м
[Sc]
+23.5 +23.2 98 +31 +31 очень
душно
1014.0 977.2
06 19.06 ЮЗ 2 10 км 9/9 400 м
[Sc]
+23.4 +23.1 98 +33 +33 очень
душно
1014.7 977.9 +22.5
09 19.06 ЮЗ 2 10 км 9/9 400 м
[Cu med, cong]
+25.6 +23.3 87 +34 +35 очень
душно
1015.4 978.8
12 19.06 ЮЗ 2 10 км 9/9 450 м
[Cu med, cong]
+29.6 +22.8 67 +39 +41 очень
душно
1014.2 978.1
15 19.06 Ю 1 10 км 6/6 450 м
[Cu med, cong]
+31.6 +22.3 58 +41 +47 опасность
перегрева
1011.5 975.7
18 19.06 Ю 1 10 км 3/3 450 м
[Cu med, cong]
+30.7 +23.4 65 +41 +42 опасность
перегрева
1011.3 975.5 +32.0
21 19.06 штиль 0 10 км 1/1 400 м
[Cu med, cong]
+24.9 +24.2 96 +34 +34 очень
душно
1013.7 977.1
00 20.06 штиль 0 10 км 3/3 400 м
[Sc]
+23.9 +23.6 98 +32 +32 очень
душно
1013.8 977.1
06 20.06 Ю 2 8000 м 10/10 400 м
[Sc]
+24.5 +24.2 98 +34 +34 очень
душно
1013.1 976.5 +23.6
09 20.06 ЮЗ 2 8000 м 8/8 400 м
[Cu med, cong]
+26.5 +23.8 85 +36 +38 очень
душно
1014.0 977.6
12 20.06 ЮЗ 3 10 км 6/6 400 м
[Cu med, cong]
+29.2 +23.9 73 +40 +47 очень
душно
1013.7 977.6
15 20.06 Ю 2 10 км 6/6 450 м
[Cu med, cong]
+30.3 +23.0 65 +40 +46 очень
душно
1011.3 975.4
18 20.06 Ю 2 10 км 3/3 450 м
[Cu med, cong]
+29.7 +23.9 71 +41 +41 опасность
перегрева
1010.9 975.0 +31.8
21 20.06 ЮЗ 1 8000 м 4/4 400 м
[Sc]
+26.5 +24.2 87 +37 +37 очень
душно
1013.6 977.2
03 21.06 Ю 1 8000 м 5/5 400 м
[Sc]
+24.4 +23.4 94 +33 +33 очень
душно
1014.3 977.6
09 21.06 Ю 2 8000 м 9/9 400 м
[Sc]
+25.4 +23.8 91 +35 +36 очень
душно
1015.2 978.6
12 21.06 Ю 4 10 км 9/9 400 м
[Cu med, cong]
+29.2 +23.6 72 +40 +41 очень
душно
1014.1 978.0
15 21.06 Ю 3 10 км 8/8 450 м
[Cu med, cong]
+30.4 +23.3 66 +41 +43 опасность
перегрева
1011.8 975.9
18 21.06 Ю 3 10 км 8/3 450 м
[Cu med, cong Ci sp]
+29.6 +23.5 70 +40 +41 очень
душно
1011.5 975.5 +31.8
21 21.06 штиль 0 10 км 3/0
[Ci sp]
+25.0 +24.5 97 +35 +35 очень
душно
1014.2 977.6
00 22.06 Ю 2 10 км зарница 4/4 400 м
[Cb calv]
+24.9 +23.3 91 +33 +33 очень
душно
1015.2 978.5
03 22.06 Ю 3 10 км 6/6 400 м
[Sc]
+24.0 +22.8 93 +32 +32 очень
душно
1014.3 977.6
06 22.06 ЮЗ 1 8000 м 10/10 400 м
[Sc]
+23.4 +23.1 98 +33 +33 очень
душно
1014.7 977.9 +23.2
09 22.06 ЮЗ 3 10 км 9/9 400 м
[Sc]
+25.3 +23.4 89 +34 +35 очень
душно
1015.5 978.9
12 22.06 ЮЗ 1 10 км 9/9 400 м
[Cu med, cong]
+28.3 +23.4 75 +38 +41 очень
душно
1014.8 978.6
15 22.06 Ю 4 10 км 5/5 450 м
[Cu med, cong]
+30.9 +23.3 64 +41 +46 опасность
перегрева
1011.6 975.8
18 22.06 Ю 2 10 км 3/3 450 м
[Cu med, cong Ci sp]
+29.6 +23.3 69 +40 +40 очень
душно
1010.1 974.2 +31.8
21 22.06 ЮЗ 1 10 км 3/0
[Ci sp]
+25.9 +23.2 85 +35 +35 очень
душно
1012.7 976.2
00 23.06 ЮЗ 3 10 км зарница 9/9 400 м
[Cb cap]
+24.3 +22.9 92 +32 +32 очень
душно
1014.2 977.5
03 23.06 Ю 2 10 км 10/10 400 м
[Cu med, cong]
+23.5 +23.0 97 +31 +31 очень
душно
1013.5 976.7
06 23.06 Ю 1 8000 м в посл. час гроза {дождь} 8/4 400 м
[Sc Ac As]
+20.3 +20.3 100 +25 +25 комфорт 1012.9 975.7 +20.2 37
09 23.06 штиль 0 10 км 9/9 400 м
[Cu med, cong]
+22.7 +21.9 95 +30 +32 очень
душно
1013.0 976.1
12 23.06 ЮЗ 3 10 км 9/9 400 м
[Cu med, cong]
+27.3 +23.5 80 +37 +39 очень
душно
1012.4 976.1
15 23.06 З 4 10 км 9/8 400 м
[Cu med, cong Ac trans]
+27.8 +23.4 77 +38 +39 очень
душно
1011.1 974.9
18 23.06 З 3 10 км 4/4 450 м
[Cu med, cong]
+27.7 +23.3 77 +37 +38 очень
душно
1010.3 974.1 +33.8
21 23.06 ЮЗ 3 10 км зарница 4/4 450 м
[Cb calv]
+25.4 +23.3 88 +34 +34 очень
душно
1012.8 976.3
00 24.06 ЮЗ 2 10 км зарница 9/6 400 м
[Cb calv]
+24.6 +22.5 88 +32 +32 очень
душно
1013.5 976.8
03 24.06 Ю 3 8000 м зарница 8/8 400 м
[Cb calv]
+22.1 +21.6 97 +29 +29 очень
душно
1013.1 976.1
06 24.06 штиль 0 8000 м 9/9 180 м
[Sc]
+21.9 +21.7 99 +29 +29 очень
душно
1013.0 976.0 +21.5
09 24.06 ЮЗ 2 10 км 6/5 400 м
[Cu med, cong Ci sp]
+24.1 +21.2 84 +30 +35 очень
душно
1014.0 977.2
12 24.06 ЮЗ 21 10 км 9/9 400 м
[Cu med, cong]
+27.0 +22.2 75 +35 +35 очень
душно
1013.0 976.6
15 24.06 Ю 2 10 км 6/6 400 м
[Cu med, cong]
+29.0 +23.4 72 +39 +45 очень
душно
1010.6 974.6
18 24.06 Ю 2 10 км 4/4 400 м
[Cb cap]
+26.3 +23.4 84 +36 +36 очень
душно
1010.6 974.3 +29.5
21 24.06 Ю 1 8000 м 3/3 400 м
[Sc]
+23.8 +23.1 96 +32 +32 очень
душно
1012.6 975.9
06 25.06 Ю 2 8000 м 9/9 400 м
[Sc]
+22.2 +22.0 99 +29 +29 очень
душно
1013.0 976.1 +22.1
09 25.06 СВ 6 8000 м слаб. дождь 10/10 400 м
[Sc]
+20.8 +20.1 96 +25 +25 комфорт 1016.1 978.8
12 25.06 С 1 10 км {дождь} 9/9 400 м
[Sc]
+22.9 +20.4 86 +30 +32 очень
душно
1012.3 975.4 2

 

Местоположение метеостанции Ман (Кот-д'Ивуар): широта 7.38 долгота -7.52 высота над уровнем моря 340 м.

В архиве по умолчанию представлена погода в Мане за последнюю неделю. Архивные данные за месяц целиком и за предыдущие месяцы, начиная с января 2011 года, Вы можете получить, выбрав интересующий диапазон дат из раскрывающегося списка и нажав кнопку "Ввод!".


*Определитесь, кто Вы:
робот инопланетянин человек

Внимание! Время в таблицах - всемирное. Для получения местного времени необходимо прибавить поправку, которая равна 0 ч.

Смотрите также архив погоды в соседних городах и на ближайших метеорологических станциях:

Погода в Далоа (Кот-д'Ивуар) (129 км)
Погода в Ганьоа (Кот-д'Ивуар) (222 км)
Погода в Одиенне (Кот-д'Ивуар) (240 км)
Погода в Ямусукро (Кот-д'Ивуар) (245 км)
Погода в Буаке (Кот-д'Ивуар) (272 км)
Погода в Сан-Педро (Кот-д'Ивуар) (308 км)
Погода в Корого (Кот-д'Ивуар) (309 км)
Погода в Сассандре (Кот-д'Ивуар) (314 км)
Погода в Димбокро (Кот-д'Ивуар) (322 км)
Погода в Табу (Кот-д'Ивуар) (330 км)

Пояснения к столбцам:

Ветер - указаны скорость ветра в м/с - средняя за 10 мин, порывы в срок и между сроками (в фигурных скобках) и направление, откуда дует ветер: С - северный, СВ - северо-восточный, В - восточный, ЮВ - юго-восточный, Ю - южный, ЮЗ - юго-западный, З - западный, СЗ - северо-западный.
Видимость - горизонтальная дальность видимости в метрах или километрах. При видимости от 1 до 10 км при отсутствии осадков обычно наблюдается дымка, при ухудшении видимости до 1 км и менее - туман. В сухую погоду видимость может ухудшаться дымом, пылью или мглою.
Явления - указаны атмосферные явления, наблюдавшиеся в срок или в последний час перед сроком; фигурными скобками обозначены явления, наблюдавшиеся между сроками (за 1-3 часа до срока); квадратными скобками обозначены град или гололедные отложения с указанием их диаметра в мм.
Облачность - указаны через наклонную черту общая и нижняя облачность в баллах и высота нижней границы облаков в метрах; квадратными скобками обозначены формы облаков: Ci - перистые, Cs - перисто-слоистые, Cc - перисто-кучевые, Ac - высококучевые, As - высокослоистые, Sc - слоисто-кучевые, Ns - слоисто-дождевые, Cu - кучевые, Cb - кучево-дождевые. Подробнее классификацию облаков см. в Атласе облаков (PDF).
T - Температура воздуха - температура, измеренная на высоте 2 м над землей.
Td - Температура точки росы - температура, при понижении до которой содержащийся в воздухе водяной пар достигнет насыщения.
f - Относительная влажность воздуха - влажноcть воздуха, измеренная на высоте 2 м над землей.
Te - Эффективная температура - температура, которую ощущает одетый по сезону человек в тени. Характеристика душности погоды. При расчете учитывается влияние влажности воздуха и скорости ветра на теплоощущения человека.
Tes - Эффективная температура на солнце - температура, которую ощущает человек, с поправкой на солнечный нагрев. Характеристика знойности погоды. Зависит от высоты солнца над горизонтом, облачности и скорости ветра. Ночью, в пасмурную погоду, а также при ветре 12 м/с и более поправка равна нулю.
P - Атмосферное давление - приведенное к уровню моря атмосферное давление.
Po - Атмосферное давление - измеренное на уровне метеостанции атмосферное давление.
Tmin - Минимальная температура - минимум температуры воздуха на высоте 2 м над землей.
Tmax - Максимальная температура - максимум температуры воздуха на высоте 2 м над землей.
R - Количество осадков - Количество выпавших осадков за период времени, мм. При наведении курсора мыши на число - период времени, за который выпало указанное количество осадков.
R24 - Количество осадков - Количество выпавших осадков за 24 часа, мм.
S - Снежный покров - Высота снежного покрова, см. При наведении курсора мыши на число - состояние снежного покрова и степень покрытия местности в баллах.